Location: Powder Track
(41.8531°N, 72.3584°W)
Time: 09:26:27
(UTC+00:00)

Transit 4A - Pass Details

Date: 08 August 2021
Orbit: 871 x 974 km, 66.8° (Epoch: 20 September)

Event Time Altitude Azimuth Distance (km) Brightness Sun altitude
Rises 13:46:47 0° 309° (NW) 3,495 10.5 42.2°
Reaches altitude 10° 13:50:48 10° 283° (WNW) 2,569 9.9 42.9°
Maximum altitude 13:53:15 13° 258° (WSW) 2,386 9.8 43.3°
Drops below altitude 10° 13:55:42 10° 233° (SW) 2,589 10.1 43.7°
Sets 13:59:49 0° 206° (SSW) 3,551 10.9 44.4°
